TimePDT,TemperatureF,Dew PointF,Humidity,Sea Level PressureIn,VisibilityMPH,Wind Direction,Wind SpeedMPH,Gust SpeedMPH,PrecipitationIn,Events,Conditions,WindDirDegrees,DateUTC
12:53 AM,64.9,59.0,81,29.77,10.0,Calm,Calm,-,N/A,,Clear,0,2013-09-19 07:53:00
1:53 AM,64.9,59.0,81,29.77,10.0,Calm,Calm,-,N/A,,Clear,0,2013-09-19 08:53:00
2:53 AM,64.0,59.0,84,29.76,10.0,Calm,Calm,-,N/A,,Clear,0,2013-09-19 09:53:00
3:53 AM,63.0,57.9,84,29.76,10.0,Calm,Calm,-,N/A,,Clear,0,2013-09-19 10:53:00
4:53 AM,63.0,57.0,81,29.76,10.0,Calm,Calm,-,N/A,,Clear,0,2013-09-19 11:53:00
5:15 AM,62.6,57.2,82,29.77,10.0,Calm,Calm,-,N/A,,Partly Cloudy,0,2013-09-19 12:15:00
5:28 AM,62.6,57.2,82,29.77,10.0,Calm,Calm,-,N/A,,Mostly Cloudy,0,2013-09-19 12:28:00
5:53 AM,63.0,57.9,84,29.77,10.0,Calm,Calm,-,N/A,,Mostly Cloudy,0,2013-09-19 12:53:00
6:53 AM,64.9,60.1,84,29.80,8.0,Calm,Calm,-,N/A,,Overcast,0,2013-09-19 13:53:00
7:53 AM,66.0,60.1,81,29.81,6.0,Calm,Calm,-,N/A,,Haze,0,2013-09-19 14:53:00
8:06 AM,66.2,60.8,83,29.81,7.0,Calm,Calm,-,N/A,,Overcast,0,2013-09-19 15:06:00
8:53 AM,66.9,59.0,76,29.81,6.0,East,4.6,-,N/A,,Haze,80,2013-09-19 15:53:00
9:53 AM,68.0,60.1,76,29.82,6.0,East,4.6,-,N/A,,Haze,80,2013-09-19 16:53:00
10:13 AM,71.6,60.8,69,29.82,6.0,Variable,4.6,-,N/A,,Haze,0,2013-09-19 17:13:00
10:53 AM,71.1,60.1,68,29.82,7.0,West,4.6,-,N/A,,Mostly Cloudy,280,2013-09-19 17:53:00
11:23 AM,73.4,60.8,65,29.81,8.0,Calm,Calm,-,N/A,,Partly Cloudy,0,2013-09-19 18:23:00
11:53 AM,75.9,60.1,58,29.80,9.0,Calm,Calm,-,N/A,,Clear,0,2013-09-19 18:53:00
12:53 PM,79.0,59.0,50,29.78,10.0,West,4.6,-,N/A,,Clear,280,2013-09-19 19:53:00
1:53 PM,79.0,60.1,52,29.77,10.0,SW,4.6,-,N/A,,Clear,220,2013-09-19 20:53:00
2:53 PM,79.0,60.1,52,29.75,10.0,SSW,8.1,-,N/A,,Clear,210,2013-09-19 21:53:00
3:53 PM,77.0,61.0,58,29.75,10.0,SSW,9.2,-,N/A,,Clear,210,2013-09-19 22:53:00
4:53 PM,73.9,60.1,62,29.75,10.0,SW,8.1,-,N/A,,Clear,220,2013-09-19 23:53:00
5:53 PM,72.0,61.0,68,29.76,10.0,SW,8.1,-,N/A,,Clear,220,2013-09-20 00:53:00
6:53 PM,70.0,61.0,73,29.77,10.0,SSW,6.9,-,N/A,,Clear,210,2013-09-20 01:53:00
7:53 PM,68.0,61.0,78,29.79,10.0,SSW,4.6,-,N/A,,Clear,210,2013-09-20 02:53:00
8:53 PM,68.0,61.0,78,29.81,10.0,Calm,Calm,-,N/A,,Mostly Cloudy,0,2013-09-20 03:53:00
9:53 PM,66.9,61.0,81,29.82,10.0,SW,3.5,-,N/A,,Overcast,230,2013-09-20 04:53:00
10:27 PM,66.2,60.8,83,29.83,10.0,South,3.5,-,N/A,,Overcast,190,2013-09-20 05:27:00
10:53 PM,68.0,61.0,78,29.83,10.0,Calm,Calm,-,N/A,,Overcast,0,2013-09-20 05:53:00
11:53 PM,68.0,61.0,78,29.82,10.0,SSW,4.6,-,N/A,,Overcast,210,2013-09-20 06:53:00